Theta_e
292 288 286 285 288 290 290 290 291 292 290 288 286 285 285 284 285 287 288 291 291 289 288 290 289 286 288 288 290 291 291 290 290 289 289 289 289 289 289 289 288 288 289 290 290 290 290 291 291 292 292 292 292 292 292 292 292 293 293 293 293 294 295 296 296 298 299 300 300 300 299 297 298 298 298 298 299 301 303 304 304 306 307 308 308 307
292 287 286 289 291 291 291 291 290 288 288 287 286 284 285 283 285 289 288 289 289 289 285 284 286 287 288 288 289 290 290 289 288 288 288 288 288 289 288 288 288 289 289 289 289 289 290 290 290 291 291 291 290 291 291 291 291 292 292 292 293 293 294 294 295 295 296 296 296 298 296 296 296 296 296 295 296 296 298 298 299 299 301 303 304 305
287 286 289 291 293 291 290 290 287 288 287 285 285 284 283 285 285 288 289 289 288 288 287 285 287 288 287 287 289 289 288 288 289 289 288 288 288 288 288 287 287 287 287 288 288 288 288 289 289 290 290 290 290 290 290 291 291 291 291 292 292 292 293 293 294 294 294 294 295 296 295 295 295 295 295 295 294 295 295 295 296 296 297 299 299 299
285 285 290 293 291 290 288 289 286 286 286 284 284 283 284 286 285 283 286 286 290 289 286 285 286 288 286 288 288 288 288 288 288 288 288 288 287 287 287 287 287 286 286 286 286 287 287 288 288 289 289 289 289 289 290 290 290 291 291 291 291 291 292 292 293 294 293 294 294 294 295 295 294 293 294 294 294 294 294 293 294 294 294 295 295 296
290 290 292 292 289 289 289 288 287 285 286 285 286 285 285 286 286 287 287 286 286 288 286 287 285 285 284 286 285 287 288 288 288 288 287 288 287 287 287 287 287 286 286 285 286 286 286 286 287 287 288 288 288 288 288 289 289 290 290 290 290 291 291 291 292 292 293 293 293 293 294 294 293 293 292 292 292 292 292 292 292 292 292 292 292 293
288 293 292 290 288 287 287 287 287 287 283 284 285 288 289 288 288 286 286 287 282 282 283 286 280 276 279 284 284 285 286 286 286 286 286 286 287 286 286 286 286 286 286 285 285 285 285 286 286 286 287 287 287 287 288 288 289 289 290 290 290 290 291 290 291 291 292 292 291 291 290 289 289 288 288 288 288 289 289 289 290 291 291 291 291 291
290 292 292 292 288 286 286 287 286 288 285 284 287 288 290 289 286 286 285 286 279 279 284 284 280 274 279 283 284 284 284 284 285 284 285 285 286 285 285 285 285 285 285 285 285 285 285 285 285 285 285 286 286 286 287 288 288 289 289 289 289 289 290 290 290 291 291 290 290 290 289 288 288 287 287 288 289 289 289 289 289 290 290 290 290 290
289 289 289 288 287 286 285 285 287 289 286 283 285 285 286 286 286 285 284 285 282 281 282 283 283 280 279 283 284 285 283 283 284 284 285 285 285 285 285 285 285 285 284 284 284 284 284 284 284 284 284 285 285 286 286 287 287 287 287 287 288 288 289 289 290 290 290 289 289 288 288 288 287 287 286 287 288 288 288 288 288 288 288 289 289 289
289 287 287 287 287 285 287 289 287 290 288 285 286 285 284 287 284 283 284 282 282 282 279 280 284 280 277 279 283 284 282 281 283 283 284 284 285 284 285 285 284 284 284 283 283 283 283 283 283 284 284 284 285 285 285 285 286 286 286 286 286 286 287 287 288 288 288 289 288 287 287 286 287 286 286 286 287 286 286 286 286 286 286 287 287 287
289 291 288 289 287 286 288 286 287 291 288 287 284 284 283 282 281 280 279 283 278 278 276 281 283 278 280 279 281 282 281 282 282 284 284 284 284 284 284 284 284 284 283 283 283 283 283 283 283 283 283 283 284 284 285 285 285 285 285 285 285 285 285 285 286 286 286 286 286 285 285 284 284 284 284 284 284 284 284 284 284 285 285 285 285 286
289 291 291 289 288 289 286 285 285 288 288 286 285 286 283 281 280 279 278 276 277 274 278 283 283 282 278 279 282 281 283 283 283 283 284 284 284 284 284 284 284 283 283 282 282 282 282 282 282 282 282 282 283 283 284 284 284 284 284 284 284 284 284 284 284 284 284 285 285 284 284 283 283 283 283 283 282 283 283 283 283 283 283 284 284 285
287 288 289 288 290 288 287 287 285 284 285 286 285 282 283 285 277 277 270 274 272 274 278 282 283 283 277 276 280 283 282 285 285 284 284 284 284 284 283 283 283 283 282 282 282 281 281 282 282 282 282 281 282 282 283 283 283 283 283 283 283 283 283 283 283 283 283 284 284 283 283 283 283 282 282 282 281 282 281 281 281 282 282 283 283 284
285 287 286 288 290 291 286 285 285 284 285 286 283 284 280 273 274 271 269 273 273 275 277 277 280 279 281 282 283 282 282 283 286 287 286 285 284 284 283 283 282 282 281 281 281 281 281 281 281 281 281 281 281 281 281 282 282 282 282 282 283 282 283 283 283 283 283 283 283 283 283 282 283 282 282 282 281 281 281 281 281 281 281 282 282 282
283 282 285 287 289 289 289 286 282 284 283 284 285 280 276 272 270 265 267 265 269 273 276 279 281 279 279 280 280 280 282 283 285 286 287 286 285 284 283 282 281 281 281 281 280 280 280 281 281 281 281 280 280 280 281 281 281 281 281 281 282 282 282 282 283 283 283 282 282 282 282 282 282 282 282 281 281 281 281 281 280 280 281 281 281 281
275 278 284 286 286 288 291 291 289 283 282 285 283 286 282 275 268 268 266 272 275 274 274 276 276 271 276 281 279 281 282 282 284 285 285 284 283 283 281 281 280 280 280 280 280 280 281 281 281 281 281 280 280 279 280 279 280 280 280 281 281 281 282 282 282 282 282 282 282 282 282 282 282 282 281 282 282 281 281 281 281 281 280 280 281 281
281 280 284 286 287 289 289 289 285 283 285 283 281 284 279 281 280 280 275 271 269 270 271 274 275 275 279 280 281 281 281 282 283 283 283 282 282 281 281 281 280 280 280 280 280 280 280 281 281 281 281 281 280 280 280 280 280 281 281 280 281 281 281 282 282 281 281 281 281 281 281 281 282 282 281 282 282 281 281 280 280 280 280 280 280 281
282 279 284 287 287 287 287 288 290 288 283 285 286 283 285 285 285 282 277 276 275 272 274 270 277 280 280 281 279 280 281 280 281 282 282 282 281 281 281 281 280 280 280 279 280 279 280 280 281 281 281 280 281 281 282 281 280 280 281 282 282 281 281 281 281 281 281 281 281 281 281 281 281 281 281 281 280 280 280 280 280 280 280 279 280 281
284 282 284 285 287 288 285 287 287 287 289 286 282 286 287 288 286 282 277 271 268 272 273 271 276 277 279 276 279 279 279 280 280 280 281 281 280 280 281 281 281 280 280 280 279 279 279 280 280 280 280 281 281 281 281 281 281 281 281 281 282 282 282 282 282 282 282 282 282 281 282 282 282 283 283 282 281 280 280 280 280 280 281 281 281 281
288 281 284 285 286 288 285 288 287 286 288 285 283 286 286 279 279 280 274 274 271 269 269 272 275 275 278 280 277 278 279 280 280 280 280 281 280 281 281 281 280 280 280 280 280 279 280 280 280 280 281 281 282 283 283 283 284 284 283 283 283 284 283 283 283 283 284 284 285 284 283 282 282 281 281 280 280 279 279 279 279 279 280 280 281 281
288 281 280 285 286 286 285 284 280 283 288 287 287 286 284 281 275 274 279 274 274 270 270 269 272 277 280 279 280 281 281 282 281 280 281 282 281 281 281 282 281 281 280 280 280 280 281 281 281 281 282 282 283 284 285 285 285 284 284 283 282 283 284 285 285 285 284 283 284 284 282 281 280 280 279 279 279 280 279 279 280 280 280 280 281 280
285 285 276 282 283 284 283 284 282 284 282 284 285 280 283 280 281 280 279 277 277 266 270 271 271 275 277 279 281 283 283 283 282 282 282 282 282 282 282 282 282 281 281 281 281 281 282 282 281 281 281 282 283 284 285 285 284 283 284 285 284 284 283 283 283 283 283 282 282 282 281 280 280 280 279 279 279 279 279 279 280 280 279 279 280 280
284 284 282 282 282 282 282 284 286 285 288 285 286 284 285 280 278 276 277 279 273 276 272 271 276 281 280 282 281 281 283 284 284 284 283 283 283 283 283 282 282 282 282 282 282 282 282 281 282 282 282 282 282 282 283 283 282 282 282 281 281 281 280 280 280 280 280 280 280 279 279 279 278 278 278 278 278 278 278 278 279 279 278 278 279 279
288 283 283 282 282 283 285 284 283 283 284 282 286 284 285 283 282 277 276 276 273 276 273 273 272 278 281 280 281 281 282 284 285 284 284 284 284 284 284 284 283 283 283 283 282 282 282 281 281 282 282 282 282 282 281 281 281 281 282 282 282 281 280 280 280 280 280 279 279 278 278 278 278 278 278 278 278 278 278 278 278 278 278 278 278 278
291 284 281 284 284 281 283 283 283 283 284 285 284 281 282 281 284 284 283 277 276 273 273 272 274 279 283 282 280 277 279 282 283 283 284 284 285 285 284 283 283 283 283 283 283 282 283 282 282 282 281 282 282 282 282 282 281 281 280 280 280 279 278 278 278 278 279 278 278 277 277 277 277 277 277 277 277 277 277 277 277 277 277 278 277 278
283 283 284 280 280 279 280 283 284 284 284 279 280 281 279 280 280 280 278 278 278 277 279 275 274 280 282 281 281 280 280 282 283 284 285 285 284 284 284 284 284 284 284 283 283 283 282 282 282 282 283 283 283 282 281 280 279 279 279 279 279 278 278 278 278 278 277 277 277 277 277 276 276 276 276 276 276 276 277 277 277 277 277 277 277 277
287 283 282 277 276 274 274 275 277 279 283 282 280 278 281 284 282 280 278 278 278 281 279 274 279 283 282 283 282 281 279 281 283 284 283 283 283 284 284 284 285 284 284 284 282 282 282 283 283 282 282 281 280 279 279 278 278 279 279 278 277 277 277 277 277 277 277 276 276 276 276 276 275 275 275 275 275 275 276 276 275 275 276 276 275 275
283 282 285 285 281 280 281 281 280 282 279 280 280 281 282 282 283 282 278 276 277 280 278 279 281 280 281 283 282 281 280 282 283 282 283 284 284 286 285 285 285 284 284 283 282 281 280 280 281 280 279 278 277 277 277 278 278 278 278 277 276 276 276 276 275 275 275 275 275 275 275 275 275 275 275 275 275 275 274 274 274 274 273 274 273 273
279 281 284 284 285 286 286 282 281 283 282 281 280 280 281 280 278 280 278 276 278 277 276 283 279 278 282 281 281 280 280 281 282 282 283 283 283 284 285 285 285 281 280 280 280 280 280 280 280 279 278 277 277 277 277 277 278 277 276 276 275 275 275 276 275 274 274 274 274 274 274 274 274 274 274 274 274 274 274 273 272 272 272 272 271 271
279 279 282 283 282 283 277 280 282 282 283 283 282 283 282 282 280 279 278 281 281 279 278 282 280 278 281 282 282 282 283 284 284 285 285 285 284 282 282 281 281 280 279 279 280 280 279 279 280 278 277 277 277 277 277 277 277 276 275 274 274 274 274 274 273 273 273 273 273 273 273 273 273 273 273 272 272 272 272 271 271 271 270 270 270 271
280 279 281 280 280 280 279 279 281 281 280 280 280 281 281 281 279 280 279 282 282 281 282 280 280 280 281 280 280 282 283 283 283 282 281 281 281 281 280 280 280 279 279 279 279 279 279 279 279 277 277 277 277 277 277 277 276 275 274 273 273 273 274 273 272 272 272 272 272 272 272 271 271 271 271 271 271 270 270 269 269 269 268 268 268 268
283 279 284 279 279 277 277 279 278 279 279 278 279 279 280 277 277 279 280 280 280 278 279 279 278 279 283 281 280 279 280 281 280 279 280 280 280 280 279 279 279 279 279 279 278 278 278 278 276 276 277 277 277 277 277 276 275 274 273 273 272 272 272 272 271 271 271 270 271 271 271 271 270 271 270 270 269 268 268 267 267 266 266 266 266 266
281 275 278 274 274 274 277 276 276 276 276 275 276 278 277 275 274 276 276 278 277 276 278 276 273 276 282 276 279 276 277 278 280 280 280 279 278 278 279 279 280 280 279 279 279 278 277 276 276 276 277 277 277 276 276 274 273 272 272 272 271 271 272 271 271 270 270 270 270 270 270 270 269 268 268 267 267 266 265 265 264 264 264 264 264 264
280 277 275 273 276 276 275 275 274 275 276 274 275 278 278 277 278 279 278 278 280 280 275 274 276 281 281 277 277 275 275 277 278 279 279 277 276 278 279 280 280 279 279 278 278 277 277 277 277 277 277 277 277 276 274 273 272 271 271 271 271 270 270 270 270 269 269 269 269 269 269 268 267 266 265 265 264 264 264 263 263 263 263 262 263 263
280 280 277 278 274 273 273 273 275 273 268 272 281 282 281 278 278 276 277 278 277 279 275 279 280 279 275 275 275 276 276 276 278 278 279 279 278 277 277 278 278 278 278 277 277 277 277 277 277 277 277 276 275 273 272 272 271 271 271 270 269 269 269 268 268 267 267 267 267 267 267 266 264 264 264 264 263 263 263 262 262 262 262 262 262 262
280 280 278 278 274 271 272 273 272 267 271 278 277 278 277 279 276 277 277 277 272 277 277 276 276 276 277 278 278 278 277 276 275 277 277 276 277 278 278 276 276 276 276 275 276 276 277 277 277 276 275 273 272 271 270 270 270 270 269 269 268 268 267 267 266 266 267 266 266 265 264 265 264 263 263 263 262 262 261 261 261 261 262 261 261 261
276 278 276 276 275 273 271 272 268 269 278 277 277 276 276 275 274 274 272 275 276 276 277 276 277 278 278 278 276 274 275 275 275 275 275 275 276 277 276 276 276 275 275 276 277 277 277 277 277 276 274 273 271 270 270 269 269 268 267 267 267 266 266 265 265 265 265 264 264 264 265 263 262 262 262 262 261 261 261 261 260 260 261 261 261 261
280 276 276 274 277 272 273 272 272 274 275 277 277 273 275 274 273 273 268 274 278 277 275 276 277 277 277 275 273 273 274 275 275 275 274 274 275 275 277 277 277 276 277 277 278 278 278 277 276 274 272 271 270 269 268 268 267 266 265 265 265 265 265 264 263 264 264 263 263 263 263 263 262 261 261 261 260 260 259 260 260 260 260 259 260 260
279 279 278 275 272 278 271 271 270 269 268 274 279 276 277 277 276 276 274 270 271 270 276 276 276 277 273 272 272 273 273 273 271 273 276 276 275 276 275 276 276 276 277 277 276 276 276 275 273 272 271 269 268 267 267 266 265 265 264 264 264 263 264 263 263 264 263 262 263 263 262 262 260 260 260 259 259 259 260 260 260 259 260 259 259 258
278 280 279 279 275 271 270 270 269 269 271 276 272 272 274 273 275 270 268 266 270 269 271 274 274 272 273 273 272 272 271 265 268 274 277 277 275 275 276 276 276 276 276 277 277 275 274 273 272 270 269 267 266 266 265 264 263 263 263 263 263 263 262 262 263 262 262 262 262 262 262 260 260 260 259 259 259 259 258 259 259 259 259 259 258 258
272 273 276 274 274 275 273 271 269 272 272 273 270 273 274 273 275 270 259 260 266 268 269 273 275 274 273 273 273 273 272 265 270 275 277 277 277 276 276 276 275 275 275 275 274 274 273 271 269 267 267 266 265 264 263 263 263 261 262 262 262 261 261 262 262 262 262 262 262 261 259 259 259 259 258 258 258 258 258 259 258 258 258 258 258 257
270 270 275 272 275 275 276 272 272 272 275 271 272 273 272 273 272 264 264 265 271 271 272 275 276 275 274 273 274 271 274 277 277 278 275 276 276 275 275 276 276 276 276 274 273 274 270 270 270 268 267 266 265 263 263 262 261 261 261 261 261 260 261 262 262 261 260 261 260 258 258 258 258 258 258 258 258 258 258 258 258 258 257 257 257 257
266 269 271 274 272 272 273 270 271 274 278 276 275 276 275 273 263 266 271 271 275 273 274 275 276 276 275 275 274 276 277 278 276 274 274 276 277 277 275 274 273 273 272 272 273 271 269 268 267 265 264 264 263 263 262 261 260 261 261 260 259 260 262 261 261 260 258 258 258 257 257 257 257 257 257 257 257 256 257 257 257 257 256 256 256 256
268 267 266 270 273 271 272 268 269 265 273 277 275 274 274 268 270 273 273 273 274 276 275 274 275 275 275 275 275 276 277 276 275 274 275 276 276 275 275 273 273 272 271 270 269 268 269 267 265 265 264 263 262 262 262 259 258 258 259 258 260 261 261 260 260 259 258 257 256 256 256 255 255 256 256 256 256 256 256 256 256 255 256 255 255 255
270 260 257 264 272 265 269 266 267 274 275 276 277 272 272 277 276 274 275 273 274 274 274 275 275 276 275 276 276 275 276 275 274 273 273 273 274 275 274 274 273 273 272 271 271 268 267 267 265 264 263 262 261 261 262 259 258 258 257 258 261 260 259 258 257 257 255 254 254 255 255 255 255 255 255 255 256 256 255 255 255 255 255 255 255 255
272 268 267 265 268 267 267 271 274 275 276 277 279 278 279 280 280 275 275 277 275 274 274 275 276 276 276 276 276 276 275 275 276 275 274 275 274 274 273 273 273 273 271 270 268 267 266 266 264 263 261 261 260 260 259 258 256 257 255 259 259 258 257 256 255 254 252 253 253 254 254 254 255 255 255 255 255 254 255 255 254 254 254 254 254 254
271 273 269 269 269 272 273 274 274 274 275 277 279 279 278 279 279 277 276 276 275 276 276 276 277 276 276 275 275 274 274 276 275 273 273 274 274 274 274 272 271 269 268 266 265 264 264 263 262 261 260 260 260 260 258 258 257 254 257 259 258 257 257 255 253 253 253 253 253 254 254 254 254 254 254 254 255 254 255 255 255 255 255 254 254 254
272 272 270 269 270 268 266 272 274 275 274 276 279 280 279 279 279 278 277 277 278 277 275 276 277 277 276 275 275 276 276 275 275 274 274 274 273 273 273 272 271 269 267 266 265 263 261 260 260 259 259 258 259 258 258 256 257 257 257 256 258 257 255 252 253 253 253 253 253 254 253 253 254 255 255 253 254 254 255 255 255 254 254 255 254 254
270 273 271 272 270 270 270 271 273 275 274 275 278 278 279 280 279 277 278 279 279 278 277 277 275 273 273 272 274 275 276 276 274 275 274 274 274 273 272 271 270 268 266 265 263 262 261 260 261 259 258 258 259 259 258 256 256 256 256 255 256 254 252 253 253 253 252 253 253 254 253 253 256 256 255 254 254 254 255 255 254 254 254 255 256 256
273 274 264 269 271 273 273 273 273 273 274 276 276 277 279 280 280 278 277 277 276 276 275 273 274 276 275 276 275 275 274 275 275 275 275 274 273 272 272 271 269 268 265 263 261 260 262 260 258 258 258 258 259 258 256 255 255 255 255 257 255 253 251 252 253 252 251 252 252 253 254 254 254 254 254 254 254 254 255 255 255 255 256 259 259 259
272 272 272 269 267 265 267 273 276 267 270 276 277 278 278 279 278 277 276 275 275 274 275 275 275 274 275 276 275 275 274 275 275 274 274 274 274 273 271 270 267 265 264 263 261 260 259 258 258 257 257 258 258 256 255 254 255 254 256 255 253 252 251 252 252 251 252 252 252 253 253 254 253 253 254 254 254 254 255 258 262 262 260 260 264 267
274 275 274 270 271 269 274 276 277 277 277 278 279 279 279 278 276 276 275 276 276 276 276 275 275 275 273 273 274 274 274 275 275 274 273 273 273 273 272 269 266 264 263 261 259 257 258 257 256 256 256 257 256 255 255 255 254 254 254 255 255 253 251 251 251 251 253 253 252 254 254 254 253 253 253 254 254 254 254 254 256 262 265 265 265 267
Wind_Speed
1 4 6 8 9 11 10 13 14 14 6 1 1 2 6 5 5 6 5 7 0 2 7 10 6 4 7 2 6 8 3 6 5 6 6 5 6 6 6 6 6 8 6 4 5 6 6 7 7 6 7 7 10 12 12 13 13 12 10 12 13 9 10 10 9 8 7 7 6 8 9 7 7 7 8 9 9 9 9 10 10 9 8 7 7 6
2 6 8 10 10 12 14 10 7 4 1 4 5 3 7 2 9 6 4 1 0 4 3 0 1 6 4 3 5 5 6 6 4 7 7 7 6 5 6 6 6 4 3 5 6 6 6 7 8 7 8 10 15 13 13 13 12 11 12 12 10 9 10 10 8 6 7 5 4 6 5 7 7 9 10 9 9 8 9 11 11 10 10 9 8 7
2 8 9 14 12 4 1 1 4 7 8 4 5 3 3 8 5 6 7 3 3 4 9 2 3 7 1 2 5 6 5 3 4 3 5 6 6 5 5 5 5 5 5 4 4 5 7 8 9 8 9 10 10 11 12 10 12 13 12 11 10 10 10 10 9 8 6 5 5 6 5 5 6 5 5 7 6 8 9 11 11 11 10 10 10 10
6 4 14 14 2 2 4 0 3 3 3 5 3 3 9 3 2 6 5 2 0 1 2 1 3 7 2 3 6 5 3 3 5 7 7 5 5 5 4 3 4 5 3 5 6 7 7 7 8 9 11 9 10 11 12 12 12 10 11 11 11 10 10 10 10 8 6 5 4 6 7 8 9 5 5 9 11 12 13 12 11 11 10 10 10 10
12 7 3 2 2 5 7 3 3 4 7 2 4 4 6 5 5 8 6 3 3 2 1 2 5 6 2 3 1 3 3 6 5 7 7 6 4 3 4 6 5 3 3 3 5 7 8 10 10 10 8 9 12 12 11 11 10 8 11 10 10 10 10 10 11 11 8 8 8 6 7 7 8 11 12 12 12 10 9 11 12 10 11 11 11 10
9 9 1 3 2 3 4 6 7 6 5 2 5 11 10 7 10 7 4 4 5 4 2 1 4 3 2 1 3 3 3 4 2 5 4 3 4 4 5 4 4 3 3 2 4 6 6 7 7 9 10 11 10 11 9 8 9 9 10 11 11 10 11 11 12 11 10 11 11 11 11 11 10 11 12 11 9 10 10 8 5 11 12 11 11 11
7 2 5 6 4 3 5 6 4 7 6 1 7 9 12 10 6 3 1 2 3 3 1 2 3 6 3 3 6 4 3 4 2 3 3 3 3 3 3 3 3 2 3 3 4 6 8 8 8 9 10 9 10 8 6 8 9 10 10 10 11 10 10 10 11 11 10 12 11 12 11 9 9 9 7 5 6 6 6 7 11 9 11 12 12 11
2 3 1 2 4 4 4 8 4 9 7 4 2 4 5 5 5 5 4 7 5 1 4 1 1 4 7 6 2 5 6 4 3 2 2 3 3 2 2 2 2 2 2 3 5 6 6 6 7 8 7 8 8 5 6 8 9 11 10 10 10 9 10 10 9 12 11 11 9 10 10 9 10 9 8 8 7 7 7 11 10 9 9 10 11 11
3 1 2 2 2 4 8 5 4 8 6 3 0 5 2 5 4 3 4 3 1 1 7 2 0 2 6 2 3 5 6 3 5 5 4 4 3 2 2 1 2 2 2 3 4 5 6 6 6 5 8 5 7 7 8 8 8 8 9 9 9 12 10 10 11 11 11 10 10 9 8 11 8 7 7 6 8 9 9 12 11 11 10 10 10 10
2 1 2 6 6 7 5 0 6 9 3 2 4 7 6 6 6 3 3 2 2 1 6 5 5 4 10 2 5 2 3 8 8 8 6 4 4 3 2 2 2 1 3 3 4 4 5 4 4 4 4 8 7 7 7 6 7 8 8 10 12 12 10 9 11 11 12 11 10 11 11 11 9 7 7 8 10 10 9 11 11 9 10 9 10 10
3 4 5 4 5 4 3 2 2 0 1 4 3 4 4 7 4 3 5 2 2 5 5 9 9 6 9 4 9 12 9 4 7 3 3 3 3 3 2 2 2 1 2 3 3 4 3 3 4 4 8 6 6 6 6 7 7 7 9 9 13 9 8 10 11 12 12 11 10 10 10 10 10 9 10 11 11 9 10 10 9 9 8 8 8 8
2 1 0 2 3 3 3 3 3 1 2 3 1 2 3 3 6 2 4 4 1 7 2 8 8 7 9 4 5 3 2 5 15 14 12 9 8 6 4 3 2 1 2 2 3 3 3 4 5 6 8 6 5 6 8 8 7 8 8 9 11 9 9 9 9 11 10 10 10 9 9 10 8 8 9 10 9 8 8 7 7 5 6 7 7 8
3 7 2 5 3 8 2 5 3 4 2 4 4 3 2 4 6 3 2 2 7 8 0 1 3 3 13 4 0 1 3 1 7 13 16 14 10 7 5 4 3 2 2 2 2 3 3 3 4 5 5 5 6 7 6 6 6 6 7 7 10 9 7 9 8 11 9 10 9 8 8 7 7 8 8 7 8 6 7 6 7 7 7 6 7 7
7 2 1 4 2 4 6 5 1 0 1 6 5 5 4 1 1 3 6 2 6 6 3 0 1 5 2 4 2 3 3 4 4 4 9 13 12 10 7 4 3 3 2 2 2 2 2 3 3 4 4 4 4 5 5 4 5 4 6 5 9 7 6 6 8 8 9 8 7 6 6 6 6 6 6 6 6 5 5 5 6 6 6 7 7 7
1 3 4 5 3 1 5 9 10 5 7 8 3 8 8 8 5 4 4 5 7 6 2 4 3 6 2 3 2 4 5 2 2 7 7 6 5 5 5 4 4 3 2 2 3 3 3 3 4 4 3 4 4 4 4 4 4 4 5 5 7 7 5 6 6 6 8 7 6 5 5 5 4 5 5 5 5 5 6 5 5 5 5 6 6 6
6 5 4 3 1 2 7 1 5 6 3 2 3 5 5 8 7 9 3 3 1 3 2 2 5 3 4 0 2 0 2 4 4 8 9 8 5 5 5 5 5 4 3 3 3 3 3 3 3 4 4 4 4 4 4 4 3 4 4 5 5 6 4 5 6 6 6 5 4 4 4 4 4 3 3 4 4 4 4 3 3 4 3 4 3 4
1 3 1 5 2 2 2 2 1 3 6 2 4 5 6 2 4 3 2 1 1 2 9 2 5 4 2 0 1 1 4 3 3 6 8 8 7 6 6 5 5 5 4 4 4 3 3 2 1 2 3 4 4 4 4 3 3 4 4 5 7 6 6 7 5 5 5 4 5 5 5 4 5 5 6 6 5 5 4 4 4 4 4 3 3 4
3 5 1 4 4 0 0 0 2 3 3 6 2 5 2 2 3 3 5 2 1 6 8 3 7 4 1 9 2 1 3 3 4 6 7 6 6 7 7 6 6 6 5 4 4 3 3 3 3 2 3 3 4 4 4 3 2 3 4 6 8 8 9 6 7 6 5 5 5 4 4 4 3 3 4 5 5 4 5 5 5 4 6 7 6 6
3 5 4 3 2 2 2 1 2 1 1 4 3 1 3 3 2 1 4 5 5 6 6 4 2 3 8 7 2 4 7 10 8 6 7 9 9 9 7 7 5 4 4 4 4 4 4 4 4 4 4 3 3 3 3 3 3 5 6 6 6 5 4 3 2 1 1 1 1 1 3 3 5 5 5 5 4 4 4 4 4 4 4 5 6 7
1 2 5 1 2 1 1 3 5 3 1 1 1 1 0 2 2 3 6 3 3 7 4 7 1 9 6 5 12 11 14 12 11 10 14 14 11 10 9 8 9 8 7 6 6 5 5 5 5 5 5 4 4 3 3 3 3 4 3 3 3 2 1 1 2 2 2 3 3 4 5 5 5 4 4 4 4 5 4 5 5 6 6 7 6 5
2 1 6 1 2 1 2 3 7 8 5 1 1 2 1 0 2 3 1 4 4 4 4 4 8 5 5 4 8 11 13 14 17 18 14 12 11 10 10 10 9 8 8 8 7 6 6 5 4 3 3 3 1 1 1 2 3 1 1 0 0 1 1 1 2 2 3 4 4 4 5 5 5 5 4 5 5 5 5 5 5 6 5 5 6 6
0 1 6 1 0 6 6 4 6 7 9 8 10 9 10 5 4 5 10 2 1 2 5 3 13 6 4 1 2 3 4 11 16 15 14 13 13 13 10 7 8 9 8 7 7 5 5 5 6 4 3 2 2 2 2 0 1 0 1 1 0 1 2 4 5 5 5 4 3 3 3 3 3 3 4 4 4 4 4 4 4 5 4 5 6 5
3 2 0 7 7 8 8 0 0 1 0 2 5 7 7 3 3 4 10 6 1 4 3 2 3 8 1 3 3 5 4 10 13 12 14 14 14 11 9 9 7 8 9 9 7 7 7 6 6 6 5 5 4 3 2 2 2 2 2 4 5 4 5 3 3 2 1 2 3 4 3 3 4 4 5 6 5 6 6 5 5 5 5 6 6 4
5 1 3 6 4 2 2 2 2 1 1 1 1 2 3 5 8 9 10 5 5 0 2 1 6 4 2 2 4 4 3 4 4 5 7 7 7 8 7 7 8 7 6 5 6 6 6 6 5 5 5 4 4 4 5 2 1 4 3 3 4 5 3 3 3 3 4 4 4 3 4 5 4 5 6 6 5 5 5 5 4 4 5 5 5 7
1 3 6 6 7 3 3 2 2 1 2 2 3 3 1 1 3 1 3 1 2 6 7 6 14 6 0 2 3 3 4 5 7 4 7 10 6 5 7 8 8 9 8 8 9 8 7 6 7 7 6 6 5 3 1 2 3 4 5 5 5 4 3 3 2 4 4 4 4 4 5 5 5 6 6 6 5 6 6 6 6 6 7 8 8 8
4 3 5 6 12 12 12 8 6 6 8 3 1 1 3 7 6 3 7 4 10 4 9 4 10 1 2 1 4 4 3 3 4 6 2 3 5 7 7 8 8 9 10 10 9 8 10 9 7 5 5 4 2 2 3 3 5 5 5 4 3 3 3 3 3 4 4 5 5 5 6 5 5 5 4 4 4 4 4 4 4 5 5 6 9 9
3 1 7 11 11 14 13 5 2 2 2 6 5 8 8 5 6 5 3 3 9 2 5 4 3 2 7 0 0 1 3 8 11 8 8 7 6 6 7 8 10 11 10 11 10 8 6 5 7 6 4 3 3 4 4 5 5 5 5 4 3 3 4 3 3 3 4 4 4 5 6 7 8 8 8 8 8 8 8 8 8 9 9 8 8 9
1 3 7 11 16 18 13 8 2 5 5 2 5 4 3 3 4 7 10 8 3 0 11 5 3 3 9 5 3 4 3 3 3 3 5 3 3 8 9 8 6 4 4 5 6 8 9 8 6 5 4 4 4 4 4 3 4 5 4 5 3 3 3 3 4 6 6 6 7 7 7 6 6 7 7 7 7 8 8 9 9 10 9 9 10 10
4 7 5 6 8 11 1 4 5 4 4 4 5 4 6 8 5 8 4 4 2 6 12 5 3 4 5 6 6 7 7 9 11 11 8 7 5 4 4 6 7 8 7 8 9 8 8 8 8 5 5 5 5 6 5 5 5 4 4 4 4 5 6 4 5 6 6 6 6 5 4 4 4 4 5 5 6 6 8 8 8 8 9 9 9 8
2 7 6 2 6 5 3 5 5 8 4 3 6 8 9 9 7 4 4 5 7 9 7 6 4 8 7 4 6 7 7 6 4 1 1 4 7 8 6 6 7 8 9 10 10 9 8 8 6 6 6 6 7 7 5 5 4 4 5 5 4 5 4 5 5 5 4 4 3 3 3 3 3 4 5 5 6 7 7 8 8 9 9 9 9 9
4 4 7 2 4 4 2 3 3 3 5 6 7 8 9 1 4 6 6 8 5 5 6 8 7 12 9 4 5 4 2 1 2 4 8 7 5 4 5 7 9 10 10 9 7 8 8 6 4 5 7 8 7 7 6 5 5 5 5 4 3 4 3 3 3 3 3 2 2 3 3 3 4 4 5 5 6 7 8 9 8 8 8 8 8 9
2 5 3 2 3 3 3 5 4 1 0 3 8 13 9 2 4 6 9 5 6 10 9 4 5 10 9 3 3 1 2 4 8 10 9 7 5 4 7 9 10 10 9 10 9 7 7 6 6 8 9 8 7 7 6 6 5 5 4 3 3 2 2 3 3 3 3 2 3 3 4 4 4 5 5 6 6 7 6 7 7 7 7 7 8 8
3 3 3 3 10 8 3 5 4 2 1 6 14 16 9 8 9 6 1 4 10 8 5 9 14 9 6 2 2 3 5 9 9 9 8 5 5 8 10 11 10 9 10 9 9 9 8 9 9 10 8 7 7 7 5 6 6 5 4 2 1 2 3 3 3 3 3 3 3 3 4 5 5 5 5 4 5 5 6 6 7 7 8 9 7 8
3 5 3 2 3 0 3 0 0 2 9 11 1 5 9 9 10 11 9 11 7 7 7 8 11 7 2 2 6 8 10 9 9 9 7 8 8 7 6 6 8 9 7 7 7 9 8 6 6 5 6 6 6 6 5 4 6 5 3 3 2 3 2 2 2 3 2 2 2 3 4 4 4 5 5 5 6 6 6 7 7 6 6 7 7 7
4 4 4 2 3 2 1 1 2 9 11 0 4 1 4 6 6 10 11 6 5 8 9 9 9 8 10 10 11 8 4 4 4 7 7 5 5 8 10 9 8 9 8 7 5 5 7 8 7 7 7 7 7 6 6 5 4 3 3 3 4 3 3 2 2 2 1 1 2 3 3 5 5 5 5 6 6 7 7 7 8 8 7 7 8 8
6 6 2 1 3 3 3 5 6 6 2 3 3 1 1 4 1 1 5 6 9 12 13 12 12 12 11 10 2 0 3 4 2 3 4 4 7 9 8 9 8 7 7 8 10 9 9 10 12 11 9 6 7 5 4 5 3 3 3 2 2 2 1 2 1 2 1 2 2 3 4 4 4 5 5 7 6 7 8 7 7 9 9 8 8 7
7 2 3 5 3 7 4 7 12 5 12 9 9 2 5 5 5 6 6 9 12 8 8 8 12 12 9 3 1 1 1 1 0 2 2 5 6 4 7 7 7 8 7 7 9 11 8 7 8 8 8 7 6 6 5 4 3 3 3 2 2 2 1 1 1 1 1 2 3 4 4 4 4 5 6 6 7 8 8 8 9 8 6 9 9 9
1 8 4 5 4 8 7 9 6 3 11 12 6 1 1 2 5 5 4 9 2 3 8 10 12 12 2 1 3 3 1 3 3 6 6 6 4 5 4 4 3 4 5 5 3 5 6 6 7 7 9 9 6 5 4 4 4 4 3 2 2 2 0 0 1 0 0 2 3 3 4 5 4 6 7 7 8 9 8 7 7 7 6 8 10 10
2 1 2 9 5 2 3 8 8 9 10 3 3 3 1 1 6 4 2 8 5 6 6 8 7 2 4 6 4 4 4 2 7 7 8 6 4 5 7 5 5 5 5 9 12 11 8 8 9 9 7 8 8 5 4 4 4 3 2 1 1 1 1 2 2 0 1 3 3 3 4 4 4 5 6 7 8 7 9 9 8 8 7 7 7 9
3 0 2 5 7 9 8 9 10 4 7 1 3 1 2 3 4 5 2 7 3 4 4 6 8 8 6 6 8 7 8 6 6 8 5 8 8 6 7 7 6 5 4 4 3 7 10 10 11 8 8 8 7 6 5 4 4 3 1 1 2 2 2 2 2 1 1 3 3 3 3 3 4 5 6 8 8 7 8 8 8 8 8 8 7 9
2 1 3 13 12 11 14 8 4 7 3 2 6 3 3 3 5 3 12 6 2 4 7 7 8 9 7 8 8 7 9 7 7 5 1 5 4 4 1 1 4 6 10 8 8 8 9 8 9 10 9 7 7 6 4 4 3 2 2 3 3 3 3 1 0 1 2 3 3 4 4 4 4 7 7 6 8 8 7 7 8 8 8 9 8 8
3 2 4 3 7 10 9 7 10 8 6 8 2 7 5 5 4 11 5 3 9 6 6 9 8 7 8 10 9 8 7 9 4 0 4 7 12 9 6 5 6 4 3 3 7 9 8 8 7 7 6 5 7 6 4 4 3 2 3 2 3 3 2 1 2 2 2 3 4 4 4 5 5 5 6 6 7 8 9 7 7 7 8 7 8 10
9 8 6 8 3 3 1 7 3 11 3 11 9 3 2 5 7 4 2 1 4 8 10 8 7 5 7 7 8 9 8 5 5 6 6 8 7 7 9 9 9 10 10 8 6 5 10 9 9 8 8 6 5 6 4 4 3 3 3 3 4 2 2 2 1 2 3 4 4 4 5 5 6 6 5 7 7 8 10 8 7 7 6 8 9 9
4 4 2 3 5 6 8 9 10 7 5 9 13 9 6 11 7 6 6 4 5 5 7 7 7 8 7 8 8 9 9 7 2 3 3 4 6 5 6 7 6 6 7 7 9 12 8 9 7 8 6 6 4 4 5 5 4 4 4 5 2 2 1 0 1 2 3 4 4 5 5 5 6 6 5 7 8 7 9 9 7 6 6 7 8 8
7 8 8 7 5 8 9 9 3 4 8 9 9 6 9 13 9 7 5 5 6 6 5 6 9 9 9 10 9 8 7 8 10 8 9 10 10 9 10 12 14 14 14 13 11 8 7 11 11 8 6 6 5 4 4 4 5 4 3 2 2 1 1 1 1 2 4 5 5 5 5 5 6 6 6 7 7 8 8 8 6 7 5 6 7 7
4 3 1 2 5 4 5 4 1 0 4 9 8 7 8 9 7 4 6 6 4 6 9 9 8 9 9 8 7 6 7 7 7 6 7 7 7 9 7 4 4 3 4 5 5 7 6 6 7 8 7 5 5 5 4 4 4 3 3 1 1 1 1 1 1 3 4 5 4 5 5 6 6 6 6 7 6 6 7 8 7 7 7 6 7 7
5 3 2 4 3 2 9 2 6 6 4 8 13 12 7 4 6 5 5 6 7 5 6 7 8 8 9 8 10 10 9 9 8 8 7 6 7 7 9 11 10 11 13 12 10 10 8 8 8 7 7 6 4 5 4 4 3 3 1 1 1 1 0 1 1 3 4 5 5 5 5 6 6 6 5 5 5 5 6 6 6 6 7 7 8 8
6 5 5 9 6 7 7 4 7 3 1 4 8 9 10 13 9 5 8 8 8 6 7 8 5 4 3 5 10 9 11 9 8 9 7 9 10 9 9 10 10 8 6 6 9 8 7 8 9 7 6 6 6 4 3 3 3 2 1 1 1 1 0 1 2 4 4 5 5 5 5 6 7 7 6 5 5 6 7 6 5 6 7 8 9 9
4 5 6 6 8 9 1 3 4 0 3 6 7 8 10 9 8 8 8 8 7 7 6 3 4 7 7 10 8 9 8 10 9 10 10 9 7 6 9 10 10 11 10 11 9 9 11 8 8 7 7 5 4 4 4 3 3 1 2 2 1 1 1 2 3 4 5 5 5 5 4 5 5 5 6 7 6 5 6 8 7 8 9 9 8 8
3 10 5 4 5 1 5 10 7 2 7 10 11 14 14 13 8 7 5 6 7 8 8 8 9 7 8 8 7 8 10 11 10 8 9 10 9 10 8 8 8 8 8 7 7 7 6 7 8 8 7 5 5 4 4 3 3 2 2 1 2 1 1 3 3 3 5 4 4 5 5 4 4 5 5 6 7 7 7 9 15 12 9 9 15 21
12 16 6 7 8 8 11 13 9 10 9 9 10 9 9 7 6 8 10 11 11 10 10 8 9 8 7 10 7 9 11 11 11 8 9 7 10 9 10 11 11 10 10 10 10 7 7 6 5 6 5 5 4 4 4 3 2 1 2 2 2 2 3 2 2 3 4 4 4 5 5 5 5 5 5 5 6 6 8 10 11 16 17 15 16 18
Wind_Direction
115 154 178 205 220 214 215 203 210 222 216 206 145 200 240 235 278 276 267 258 163 320 250 255 273 258 266 16 322 334 10 77 90 93 89 77 76 69 65 60 53 47 42 356 7 5 3 8 14 20 26 36 45 40 36 40 35 34 32 37 33 16 21 29 27 31 34 38 42 51 55 61 37 38 41 42 30 35 30 27 26 21 15 16 31 27
86 206 228 222 219 214 219 219 231 268 50 216 238 242 268 211 261 252 284 282 299 171 294 300 258 272 269 360 356 346 40 40 65 92 88 90 81 74 68 60 49 44 32 13 19 15 15 20 22 27 36 33 43 31 36 38 34 32 32 38 32 24 28 28 22 23 45 30 51 89 81 88 52 43 41 35 29 28 35 33 28 24 20 24 23 15
203 214 229 231 229 245 21 170 195 209 237 227 217 237 296 260 265 288 267 305 252 160 257 279 265 268 358 15 19 42 52 48 39 76 101 103 93 80 66 63 54 46 29 16 21 23 26 22 25 33 35 40 43 43 40 34 38 33 32 30 30 29 31 25 19 24 30 32 40 65 54 70 92 67 77 75 53 43 42 39 33 29 26 24 27 21
254 273 242 240 226 218 280 127 157 203 222 220 222 208 239 242 334 305 288 346 351 168 266 164 245 276 92 79 66 30 54 72 58 64 62 57 82 79 68 52 61 43 22 28 18 24 22 29 32 35 36 35 42 41 38 34 36 36 34 30 27 30 34 31 23 18 8 32 53 58 68 60 68 60 33 47 39 32 33 31 30 33 27 30 34 27
217 227 252 266 152 184 233 231 157 196 244 246 198 218 246 247 229 197 252 334 308 333 61 261 295 300 253 214 45 55 55 75 59 70 65 56 63 75 73 62 41 42 0 19 29 28 28 33 31 32 34 37 44 40 37 34 36 39 36 34 33 31 33 35 27 24 16 27 31 29 51 51 45 34 32 32 25 23 26 29 25 17 24 28 32 29
277 262 123 129 161 176 202 261 229 183 256 301 225 209 226 225 244 248 301 340 4 330 339 89 318 297 326 318 152 134 63 66 28 82 74 71 58 55 67 60 45 30 357 14 33 34 32 37 33 33 33 39 42 40 32 36 41 43 41 38 38 39 35 34 33 30 37 42 42 38 38 37 40 42 29 28 17 13 21 15 357 24 25 26 28 27
230 236 165 210 163 163 185 218 242 150 203 208 269 203 219 226 225 236 233 99 286 240 291 35 197 268 315 222 196 152 104 91 43 81 96 80 72 69 56 53 38 13 17 20 38 37 41 28 39 35 35 35 44 35 30 42 46 47 47 45 45 45 41 35 38 37 46 52 49 51 53 52 52 59 42 35 33 36 23 33 33 25 27 26 27 23
172 291 110 103 135 151 170 242 225 153 147 227 250 162 181 188 200 216 172 183 233 265 301 30 135 253 287 269 164 139 122 129 133 146 130 112 113 85 71 44 30 15 10 35 45 43 39 38 39 43 33 36 36 31 41 46 45 48 47 49 50 52 50 43 43 49 47 61 58 62 60 56 54 52 48 33 36 39 36 42 32 33 31 29 30 27
151 310 147 159 162 165 213 206 174 165 150 218 200 128 140 180 188 125 129 172 251 20 280 319 315 336 262 266 46 138 132 202 205 184 184 165 147 122 89 77 52 44 27 41 55 46 39 36 33 36 45 33 41 37 44 45 46 52 51 53 55 54 52 46 50 57 51 59 61 64 64 63 51 55 49 46 44 42 32 43 30 32 26 28 29 31
303 220 227 166 153 219 225 309 168 154 202 272 134 84 77 75 69 109 104 94 326 76 257 202 186 232 274 173 129 289 284 219 198 191 184 181 171 158 134 101 81 52 52 45 50 46 44 36 37 33 56 48 39 38 46 47 50 54 57 55 56 51 49 48 53 57 56 54 57 60 56 65 57 50 49 51 44 40 34 42 32 26 25 19 21 20
265 303 161 125 194 212 121 66 151 209 132 127 85 67 12 35 21 22 60 79 38 268 225 194 208 167 280 201 188 173 216 179 139 164 177 176 185 187 182 159 151 93 58 56 50 42 44 32 44 34 57 49 42 39 49 51 51 54 57 58 59 49 51 50 53 57 57 55 55 60 56 56 55 47 51 50 42 36 37 39 28 24 16 15 17 14
343 356 304 251 87 94 103 84 35 106 113 122 88 123 38 328 12 35 341 38 103 269 194 213 199 174 211 290 266 240 348 179 160 175 176 180 185 183 176 174 157 115 71 58 58 47 37 44 39 47 54 47 45 49 49 49 49 54 55 60 67 50 50 51 54 60 58 58 57 59 58 58 51 50 53 54 51 40 46 42 37 19 22 17 15 15
282 231 238 314 212 142 118 74 342 27 37 81 81 66 121 266 26 306 21 270 209 236 211 54 122 8 246 222 201 317 333 275 197 173 174 174 174 174 173 168 158 118 91 72 74 66 56 63 56 59 58 55 52 58 53 50 54 58 62 61 72 56 47 51 52 60 59 60 56 56 57 57 55 56 56 56 56 43 48 37 35 28 26 13 19 15
280 284 24 249 349 217 133 149 202 22 220 125 158 143 103 255 269 277 269 247 313 293 272 240 142 257 267 297 33 282 289 279 235 178 166 166 165 166 164 159 143 131 124 126 110 111 101 97 84 77 80 74 71 67 65 63 68 70 72 70 75 68 52 57 59 60 63 59 59 58 63 60 59 58 60 55 59 47 53 43 41 34 25 19 15 3
9 342 278 150 227 188 170 192 190 165 158 205 121 149 187 145 154 233 204 226 240 235 290 276 112 233 137 221 302 246 276 316 123 121 127 120 134 140 143 136 137 136 144 153 140 147 137 109 102 102 101 91 85 85 82 83 82 88 83 80 83 77 57 66 68 67 67 63 55 55 57 59 57 61 58 55 57 51 42 30 33 24 17 25 359 2
206 215 254 239 254 144 180 302 105 104 60 175 160 79 90 224 141 237 201 177 260 326 328 193 203 194 181 126 275 276 52 47 95 115 125 128 128 131 137 158 167 169 169 173 168 150 125 111 106 103 95 102 104 102 99 89 95 93 96 96 91 90 82 71 67 61 68 66 72 65 63 59 66 67 71 55 43 41 51 28 35 2 2 355 344 338
94 276 283 316 82 160 202 156 228 141 217 206 103 201 213 118 140 285 15 89 79 26 253 147 302 296 306 109 1 355 86 68 92 127 138 150 155 158 171 175 180 182 182 185 177 164 138 119 115 125 128 123 118 112 109 119 126 117 114 96 85 78 67 58 59 62 56 54 52 41 47 39 38 38 38 35 27 19 8 12 356 355 326 312 325 328
207 246 286 94 272 295 235 108 92 25 147 94 180 234 98 139 107 134 228 334 70 220 267 90 211 272 135 276 52 17 131 172 163 165 165 162 162 175 188 183 186 188 191 195 187 181 175 170 162 169 173 157 152 145 133 130 148 120 89 75 69 56 55 41 45 44 42 44 41 30 30 31 46 36 27 29 18 8 10 358 355 343 349 348 343 347
114 294 281 232 168 300 0 91 350 344 8 158 191 232 131 237 259 315 89 253 261 252 262 283 223 257 197 237 107 245 194 199 189 183 170 186 190 191 190 194 193 190 184 183 188 188 192 186 180 172 165 178 160 153 134 109 79 61 53 53 67 75 75 71 70 68 93 93 80 71 24 22 10 14 10 9 3 356 357 338 334 340 322 332 342 347
28 222 293 321 141 334 9 84 221 245 331 55 69 55 208 109 179 130 196 193 169 272 261 285 304 249 200 221 185 201 200 186 173 185 201 193 186 188 189 187 188 185 186 188 190 196 192 189 187 176 169 162 151 122 97 75 64 69 57 69 64 72 87 62 46 36 21 2 20 5 6 6 10 8 358 344 357 342 343 339 347 345 352 344 336 337
250 127 254 286 312 49 230 178 213 175 186 178 192 273 319 162 233 100 330 153 202 202 219 260 284 275 263 203 182 207 192 182 178 191 192 187 191 195 193 188 186 184 187 191 191 191 189 182 179 189 188 165 141 91 76 90 97 77 49 126 115 108 11 355 323 10 346 4 1 6 351 351 359 350 357 355 3 2 350 346 346 343 332 334 334 334
110 205 235 316 139 214 237 241 204 184 190 182 180 209 194 164 240 251 256 79 131 188 239 207 260 270 264 135 228 229 213 184 198 185 179 182 191 195 196 190 181 185 195 190 191 184 175 173 176 187 186 181 151 161 146 103 166 312 253 236 4 24 6 0 350 6 353 2 1 355 348 347 348 8 12 17 11 10 352 344 336 325 333 331 317 330
169 143 94 249 221 205 223 246 265 205 139 196 175 234 187 188 149 204 251 241 31 244 105 190 286 259 245 270 256 236 200 196 195 183 183 184 189 192 193 186 189 190 187 188 182 184 184 178 177 180 182 178 181 196 221 240 224 244 4 21 24 34 10 9 339 346 345 18 31 13 12 18 17 12 16 18 10 5 353 347 339 335 340 328 325 328
92 105 256 271 308 323 337 307 36 127 116 3 300 63 116 187 192 210 233 190 206 189 262 285 237 263 333 316 275 240 221 178 162 185 182 175 188 195 181 174 183 190 196 185 184 186 181 182 172 175 183 185 204 217 224 231 24 41 57 59 58 52 27 29 26 39 54 48 50 43 38 28 17 19 14 14 360 356 343 340 333 329 336 326 334 338
287 228 212 267 278 312 343 346 342 338 70 189 211 225 202 76 73 145 85 113 217 208 211 160 253 244 278 18 11 54 107 132 146 155 172 184 195 178 181 189 191 188 180 183 184 185 181 180 182 187 189 195 204 214 54 69 103 85 72 69 73 76 72 68 55 70 61 64 49 36 35 21 15 15 9 6 358 353 348 347 346 348 349 346 348 348
226 199 148 212 239 250 250 226 225 241 224 219 214 271 230 182 179 123 234 194 233 207 186 202 251 262 279 358 35 58 95 111 151 163 182 205 183 184 190 194 192 187 192 184 180 182 188 188 188 188 194 200 159 119 128 119 98 99 95 86 104 103 82 61 61 58 54 43 41 28 24 12 10 7 360 352 348 342 337 335 346 346 351 352 342 339
207 232 212 224 228 245 247 257 250 93 62 192 227 192 211 210 216 198 103 165 214 235 234 235 232 325 301 320 66 160 168 168 175 188 189 201 203 201 198 192 193 194 187 182 183 186 181 187 196 200 186 148 144 140 132 127 125 121 116 102 85 75 71 64 65 66 62 52 43 30 16 8 2 358 359 359 354 354 356 359 358 357 353 351 346 342
77 252 237 237 237 245 256 237 217 163 207 286 200 238 244 223 190 179 196 220 153 170 257 231 166 233 256 253 219 204 218 240 255 240 226 232 200 202 204 201 189 169 172 171 178 184 192 197 198 198 161 145 139 132 123 119 131 124 111 98 91 88 77 48 46 38 36 29 27 23 9 7 352 358 358 352 352 353 356 354 352 350 346 346 344 342
153 238 231 223 250 257 191 197 196 164 198 190 188 204 212 218 188 193 226 216 167 210 261 264 166 194 257 249 200 198 181 200 201 203 213 215 220 208 182 183 189 191 185 184 194 193 190 194 203 179 159 155 146 148 149 141 128 124 109 89 62 50 45 33 46 39 33 30 26 13 358 352 352 354 354 348 354 356 352 349 344 341 342 340 336 337
112 250 249 232 269 268 273 219 193 188 193 175 214 221 224 228 223 185 208 235 217 241 257 274 285 258 244 253 176 212 205 208 246 317 206 193 209 197 196 202 198 196 193 195 196 196 197 201 193 167 158 157 162 160 150 132 110 89 83 70 56 52 30 43 41 45 38 30 21 1 350 348 349 354 356 357 356 353 347 343 340 337 336 334 333 333
154 256 142 169 234 273 293 351 343 235 184 214 246 241 236 191 110 181 201 226 243 294 268 263 266 268 262 198 195 252 251 271 319 278 248 242 242 217 194 204 204 200 202 198 194 200 202 199 177 161 165 172 171 163 139 121 112 103 88 80 68 52 35 57 57 53 47 22 16 354 354 354 359 3 357 354 346 345 343 337 335 331 328 328 331 327
155 259 57 118 216 273 205 165 193 106 60 217 254 251 239 150 232 219 223 186 190 224 240 266 277 260 264 102 144 82 151 194 215 232 236 240 237 215 210 213 206 201 196 197 199 194 192 189 174 172 176 173 163 145 135 128 126 109 102 94 74 56 60 53 48 41 28 13 4 357 0 3 4 357 345 346 341 337 333 328 327 325 323 324 324 325
185 142 173 183 230 231 219 157 166 128 328 278 242 238 219 222 221 241 278 201 214 203 209 229 243 246 252 139 148 243 193 220 226 232 246 257 231 210 211 210 202 197 195 193 191 191 189 185 183 176 165 155 150 139 134 133 123 118 116 96 83 66 54 49 46 40 19 8 356 358 8 3 355 341 337 336 333 326 325 325 322 322 324 322 320 318
139 160 194 178 203 81 26 318 125 138 219 232 89 139 180 213 213 225 235 228 217 163 206 211 239 253 269 182 204 237 221 220 218 233 214 209 205 206 225 214 202 194 195 192 187 185 184 171 165 159 149 137 124 117 120 120 114 116 113 99 58 75 44 66 35 52 2 8 358 22 359 349 345 334 329 328 328 325 322 322 317 316 311 309 315 315
169 183 207 149 140 216 91 1 220 228 239 226 173 254 190 207 186 209 228 234 196 216 233 255 261 257 240 230 228 242 268 271 248 226 226 219 188 190 191 194 196 194 186 177 182 186 177 168 152 138 134 136 135 130 118 99 100 102 81 69 55 53 57 42 47 21 345 29 18 9 344 339 335 327 322 324 321 320 317 316 313 313 314 314 315 317
175 166 188 166 135 38 87 216 234 229 89 228 245 300 53 73 91 113 308 272 236 215 213 227 239 241 242 246 264 228 214 240 259 248 214 211 190 183 174 191 199 179 180 193 184 186 171 173 169 164 153 138 130 121 108 116 108 106 97 73 97 71 58 80 40 340 10 23 358 350 334 333 324 320 317 316 315 313 312 312 311 315 316 311 307 302
172 107 152 232 180 234 186 222 249 343 307 290 274 188 173 170 175 157 237 255 238 214 201 208 235 246 246 278 125 138 159 103 53 292 266 212 215 209 188 198 185 196 193 195 188 183 177 162 150 141 131 132 130 129 127 122 123 125 126 122 120 103 69 79 4 299 42 354 340 325 324 321 317 314 313 312 311 309 309 312 312 311 312 308 308 308
244 187 212 214 247 182 214 256 274 270 253 251 247 18 333 169 151 187 170 277 312 220 201 189 220 235 221 116 153 162 109 65 290 270 251 245 207 206 242 240 230 205 190 159 105 118 130 125 111 123 136 134 126 124 127 137 137 139 134 124 105 103 71 123 237 199 40 310 304 305 307 311 310 307 307 308 305 305 306 305 300 299 308 303 307 305
350 107 261 215 237 61 205 225 223 240 248 203 199 198 306 23 130 95 74 273 264 208 221 185 214 197 181 170 171 144 104 168 245 247 247 230 219 195 194 210 199 191 175 167 161 154 149 143 140 136 128 131 135 146 142 137 138 120 100 115 137 147 173 223 210 174 273 281 290 288 293 297 299 298 299 298 298 301 302 303 300 300 299 291 292 293
105 1 170 257 223 220 227 237 242 228 251 283 214 243 188 128 101 67 359 275 262 217 182 166 198 204 204 174 155 155 150 192 242 253 224 202 197 186 174 167 155 154 156 143 121 143 138 132 125 132 146 154 153 143 141 131 103 96 130 184 161 186 213 219 182 229 271 276 280 283 289 293 292 288 290 292 294 294 291 294 297 295 296 294 291 293
158 271 223 217 225 231 232 246 290 276 257 188 177 184 153 162 83 138 228 236 231 195 202 187 194 199 170 153 167 170 221 198 213 236 169 168 143 179 210 176 168 164 162 159 147 134 138 150 154 159 161 150 141 138 133 114 113 146 176 183 188 214 218 201 212 268 269 279 284 287 285 287 283 287 285 283 288 290 289 288 289 294 293 294 293 288
340 74 320 294 227 225 228 244 239 274 241 159 269 147 175 97 215 222 235 199 155 205 194 200 200 206 168 175 183 204 221 227 242 268 176 175 184 185 168 144 120 91 64 103 140 144 142 143 136 127 125 135 137 139 135 131 139 176 180 184 215 224 203 200 240 261 274 281 284 285 289 285 284 280 281 285 286 289 285 280 279 283 288 287 290 291
193 145 211 200 203 51 179 245 271 257 245 132 127 70 270 159 236 191 178 249 193 181 183 213 214 224 171 206 206 210 228 239 200 210 196 195 179 172 170 162 164 166 160 144 156 181 152 150 157 159 153 149 147 144 146 132 156 181 185 201 226 197 208 220 246 271 278 289 288 288 288 287 286 287 287 285 281 280 284 285 284 281 280 286 289 286
207 114 241 261 185 168 189 202 210 231 127 167 138 181 203 208 201 170 143 203 223 183 188 196 224 214 197 196 208 229 235 240 246 220 241 246 225 199 177 183 177 171 175 185 172 167 162 151 152 151 154 151 152 151 150 149 167 181 189 221 199 190 195 218 271 284 293 288 287 289 289 286 286 282 282 281 282 279 281 287 283 281 278 281 284 290
203 190 177 186 212 157 201 218 213 151 165 191 184 198 201 213 210 185 171 186 170 229 195 183 217 217 200 205 215 209 225 227 226 205 194 212 205 196 184 192 187 185 183 179 175 166 165 162 162 153 153 158 156 162 161 166 159 181 190 213 158 210 222 256 269 299 289 284 285 286 283 285 282 284 279 277 276 282 284 285 288 292 281 279 284 282
278 202 143 88 248 268 274 202 122 348 172 197 225 218 210 224 234 177 194 220 231 199 170 189 217 209 206 205 204 241 223 232 223 213 214 229 217 216 205 184 180 159 148 131 141 164 157 138 142 151 161 169 167 174 169 177 159 171 212 169 168 208 218 252 292 290 279 281 282 283 288 292 287 278 273 271 267 264 272 281 291 288 289 285 280 280
250 150 169 205 265 137 255 128 153 211 221 194 211 231 240 233 227 193 203 214 229 202 202 221 208 201 202 189 199 217 230 228 225 223 209 220 226 215 197 195 192 181 175 179 174 147 145 149 152 165 168 179 188 179 184 176 185 185 202 202 228 227 222 277 269 274 280 282 282 285 284 284 286 286 277 275 276 270 273 278 276 278 283 283 285 281
299 172 170 228 219 195 245 203 217 247 3 239 219 219 235 243 232 193 206 213 221 223 203 216 201 233 153 185 207 209 230 229 212 225 215 212 214 208 202 201 188 179 193 166 151 154 142 156 165 170 174 188 185 179 183 179 191 199 184 220 230 225 138 271 267 270 278 283 286 285 281 278 280 285 293 285 284 293 292 278 270 274 277 283 283 285
192 104 222 185 206 233 277 316 238 44 291 257 238 241 240 234 230 217 217 222 229 237 247 246 187 210 191 218 202 205 224 239 216 215 218 220 213 206 205 200 195 187 164 160 170 165 169 164 164 172 174 187 172 176 177 187 204 194 204 222 212 172 190 253 265 272 281 280 282 279 276 275 279 283 288 294 285 267 269 288 289 279 271 257 254 259
97 239 208 88 227 250 189 230 204 204 251 244 230 227 228 230 219 226 219 237 240 238 237 236 245 227 220 225 201 193 211 230 227 207 219 222 214 211 198 184 175 165 166 161 148 158 149 162 161 165 173 176 170 175 181 194 205 210 206 218 225 178 200 246 266 277 280 277 276 280 281 281 282 284 287 288 296 299 289 272 290 289 290 291 290 291
205 228 175 188 212 236 227 231 214 216 245 246 244 233 220 218 191 214 221 222 230 226 225 219 242 259 241 238 206 196 213 221 231 206 215 223 224 208 189 171 165 167 167 160 151 160 160 162 157 152 163 173 170 179 185 188 208 221 229 208 223 200 217 228 252 267 277 285 282 285 292 293 294 289 286 288 296 297 302 309 304 301 298 297 299 300